Home > Weather > Toruń > Past weeks

Flag for Poland Past Weather in Toruń, Poland — Yesterday and Last 2 Weeks

Now
76 °F

Partly sunny.


Feels Like: 78 °F
Forecast: 65 / 84 °F
Wind: 1 mph from Southeast

Location: Torun

Current Time: Jul 25, 2016 at 10:11:03 AM

Latest Report: Jul 25, 2016 at 9:00 AM


Visibility: 12 mi

Pressure: 30.05 "Hg

Humidity: 64%

Dew Point: 63 °F

Location of ToruńLocation

Past Weather in Toruń — Graph

°F

Toruń Temperature Yesterday

Maximum temperature yesterday: 78 °F (at 2:00 PM)
Minimum temperature yesterday: 59 °F (at 5:00 AM)
Average temperature yesterday: 69 °F

High & Low Weather Summary for the Past Weeks

 TemperatureHumidityPressure
High90 °F (Jul 11, 2:00 PM)97% (Jul 13, 11:00 PM)30.21 "Hg (Jul 13, 11:00 PM)
Low48 °F (Jul 22, 4:00 AM)29% (Jul 21, 5:00 PM)29.44 "Hg (Jul 14, 7:00 PM)
Average66 °F74%29.98 "Hg
* Reported Jul 10 8:00 AM — Jul 25 8:00 AM, Toruń, Weather by CustomWeather, © 2016

Note: Actual official high and low records may vary slightly from our data, if they occured in-between our weather recording intervals... More about our weather records

Advertising

Toruń Weather History for the Previous 24 Hours

Scroll right to see more
 ConditionsComfort  
Time TempWeatherWind HumidityBarometerVisibility
8:00 AM
Mon, Jul 25
72 °FPartly sunny.1 mph72%30.06 "Hg9 mi
7:00 AM69 °FPartly sunny.2 mph82%30.06 "Hg7 mi
6:00 AM64 °FPartly sunny.1 mph92%30.07 "Hg6 mi
5:00 AM64 °FPartly sunny.2 mph91%30.08 "Hg6 mi
4:00 AM65 °FPassing clouds.2 mph89%30.08 "Hg7 mi
3:00 AM66 °FPassing clouds.1 mph86%30.09 "Hg7 mi
2:00 AM67 °FOvercast.1 mph85%30.09 "Hg8 mi
1:00 AM67 °FOvercast.1 mph83%30.09 "Hg8 mi
12:00 AM68 °FOvercast.2 mph81%30.10 "Hg9 mi
11:00 PM
Sun, Jul 24
69 °FOvercast.2 mph78%30.10 "Hg9 mi
10:00 PM70 °FOvercast.2 mph75%30.10 "Hg10 mi
9:00 PM71 °FOvercast.2 mph70%30.09 "Hg10 mi
8:00 PM73 °FOvercast.2 mph66%30.09 "Hg11 mi
7:00 PM76 °FOvercast.2 mph60%30.08 "Hg11 mi
6:00 PM77 °FOvercast.3 mph57%30.08 "Hg14 mi
5:00 PM78 °FOvercast.2 mph55%30.09 "Hg12 mi
4:00 PM78 °FOvercast.2 mph54%30.09 "Hg13 mi
3:00 PM78 °FOvercast.2 mph52%30.10 "Hg14 mi
2:00 PM78 °FOvercast.2 mph53%30.11 "Hg12 mi
1:00 PM77 °FOvercast.1 mph57%30.11 "Hg11 mi
12:00 PM74 °FPartly sunny.2 mph64%30.12 "Hg11 mi
11:00 AM74 °FOvercast.2 mph67%30.12 "Hg9 mi
10:00 AM71 °FOvercast.2 mph74%30.12 "Hg9 mi
Weather by CustomWeather, © 2016

See weather overviewHow to use our weather pages